GW4533 Weather Reports


time (UTC)temp
F
wind
direction
speed
knots
gust
knots
rain 1hr
in
rain 24hr
in
rain mn
in
humidity
%
barometer
mb
20260508135521 55 242 0.9 3.5 0.00 0.00 0.00 64 1014.8
20260508135018 54 2 0.0 7.0 0.00 0.00 0.00 65 1014.9
20260508134514 54 303 4.3 6.1 0.00 0.00 0.00 63 1014.8
20260508134011 54 256 2.6 6.1 0.00 0.00 0.00 63 1014.9
20260508133508 54 5 1.7 5.2 0.00 0.00 0.00 64 1014.8
20260508133005 53 12 3.5 5.2 0.00 0.00 0.00 64 1014.7
20260508132503 53 300 0.9 5.2 0.00 0.00 0.00 66 1014.9
20260508131959 53 294 1.7 2.6 0.00 0.00 0.00 67 1014.8
20260508131455 53 2 2.6 3.5 0.00 0.00 0.00 66 1014.5
20260508130952 53 214 1.7 2.6 0.00 0.00 0.00 67 1014.8
20260508130449 52 317 3.5 7.8 0.00 0.00 0.00 66 1014.8
20260508125944 52 212 0.9 3.5 0.00 0.00 0.00 66 1014.8
20260508125441 53 276 1.7 5.2 0.00 0.00 0.00 65 1014.8
20260508124939 52 143 3.5 5.2 0.00 0.00 0.00 66 1014.6
20260508124436 52 2 0.9 2.6 0.00 0.00 0.00 66 1014.7
20260508123934 52 223 1.7 3.5 0.00 0.00 0.00 66 1014.7
20260508123432 51 265 0.9 5.2 0.00 0.00 0.00 66 1014.8
20260508122928 51 333 1.7 2.6 0.00 0.00 0.00 66 1014.6
20260508122425 51 240 1.7 2.6 0.00 0.00 0.00 67 1014.6
20260508121923 51 237 1.7 2.6 0.00 0.00 0.00 67 1014.5
20260508121421 50 208 1.7 2.6 0.00 0.00 0.00 68 1014.7
20260508120918 51 200 0.0 2.6 0.00 0.00 0.00 68 1014.7
20260508120416 50 317 0.0 3.5 0.00 0.00 0.00 69 1014.4
20260508115913 50 185 1.7 1.7 0.00 0.00 0.00 69 1014.6
20260508115411 50 280 1.7 2.6 0.00 0.00 0.00 68 1014.3
20260508114907 49 302 1.7 5.2 0.00 0.00 0.00 68 1014.3
20260508114404 49 136 0.0 2.6 0.00 0.00 0.00 69 1014.2
20260508113900 49 179 0.9 2.6 0.00 0.00 0.00 69 1014.3
20260508113359 48 213 0.0 2.6 0.00 0.00 0.00 71 1014.3
20260508112855 47 148 1.7 1.7 0.00 0.00 0.00 71 1014.4
20260508112352 47 247 1.7 2.6 0.00 0.00 0.00 72 1014.5
20260508111848 47 302 0.9 1.7 0.00 0.00 0.00 74 1014.3
20260508111346 46 234 1.7 3.5 0.00 0.00 0.00 74 1014.5
20260508110843 46 286 0.9 2.6 0.00 0.00 0.00 75 1014.4
20260508110341 46 248 3.5 3.5 0.00 0.00 0.00 75 1014.4
20260508105840 45 229 0.9 2.6 0.00 0.00 0.00 77 1014.2
20260508105337 45 278 0.9 1.7 0.00 0.00 0.00 78 1014.2
20260508104834 45 216 0.9 2.6 0.00 0.00 0.00 78 1014.2
20260508104331 45 264 0.9 1.7 0.00 0.00 0.00 78 1014.2
20260508103828 45 237 0.9 1.7 0.00 0.00 0.00 79 1014.0
20260508103325 45 228 0.0 1.7 0.00 0.00 0.00 79 1014.0
20260508102823 45 235 0.0 0.9 0.00 0.00 0.00 79 1013.9
20260508102321 45 327 1.7 2.6 0.00 0.00 0.00 79 1013.8
20260508101817 45 241 0.0 1.7 0.00 0.00 0.00 78 1013.8
20260508101315 45 245 1.7 1.7 0.00 0.00 0.00 78 1013.9
20260508100812 45 196 0.9 1.7 0.00 0.00 0.00 78 1014.1
20260508100311 46 229 0.9 1.7 0.00 0.00 0.00 77 1014.0
20260508095806 46 239 0.9 0.9 0.00 0.00 0.00 78 1014.0
20260508095306 46 274 0.9 1.7 0.00 0.00 0.00 78 1014.0
20260508094800 46 250 0.0 1.7 0.00 0.00 0.00 78 1014.1
20260508094258 46 246 0.9 1.7 0.00 0.00 0.00 79 1014.1
20260508093755 45 238 0.0 0.9 0.00 0.00 0.00 80 1014.0
20260508093252 45 273 0.0 1.7 0.00 0.00 0.00 80 1014.1
20260508092749 45 277 1.7 1.7 0.00 0.00 0.00 83 1014.1
20260508092247 44 231 0.9 0.9 0.00 0.00 0.00 84 1014.2
20260508091745 44 219 0.0 2.6 0.00 0.00 0.00 86 1014.2
20260508091242 44 229 0.9 0.9 0.00 0.00 0.00 89 1014.4
20260508090739 43 190 0.0 0.0 0.00 0.00 0.00 90 1014.3
20260508090237 43 275 0.0 0.0 0.00 0.00 0.00 89 1014.5
20260508085733 44 284 0.0 0.0 0.00 0.00 0.00 89 1014.4
20260508085230 44 258 0.0 0.0 0.00 0.00 0.00 88 1014.4
20260508084726 44 245 0.0 0.9 0.00 0.00 0.00 87 1014.4
20260508084224 44 239 0.0 0.0 0.00 0.00 0.00 88 1014.5
20260508083721 45 348 0.0 0.0 0.00 0.00 0.00 87 1014.7
20260508083218 45 347 0.0 0.0 0.00 0.00 0.00 87 1014.7
20260508082713 44 246 0.0 0.0 0.00 0.00 0.00 85 1014.5
20260508082211 45 246 0.0 0.0 0.00 0.00 0.00 85 1014.4
20260508081708 45 272 0.0 0.0 0.00 0.00 0.00 83 1014.4
20260508081204 46 272 0.0 0.0 0.00 0.00 0.00 83 1014.6
20260508080702 46 328 0.0 0.9 0.00 0.00 0.00 82 1014.7
20260508080200 46 219 0.0 0.0 0.00 0.00 0.00 82 1014.5
20260508075656 46 219 0.0 0.0 0.00 0.00 0.00 82 1014.6
20260508075153 46 219 0.0 0.0 0.00 0.00 0.00 81 1014.5
20260508074651 46 219 0.0 0.0 0.00 0.00 0.00 81 1014.5
20260508074148 46 224 0.0 1.7 0.00 0.00 0.00 81 1014.6
20260508073645 46 317 0.0 0.9 0.00 0.00 0.00 81 1014.8
20260508073143 46 244 0.0 3.5 0.00 0.00 0.00 81 1014.6
20260508072638 46 237 2.6 2.6 0.00 0.00 0.00 81 1014.8
20260508072135 46 316 3.5 3.5 0.00 0.00 0.00 79 1014.6
20260508071633 46 233 0.9 0.9 0.00 0.00 0.00 79 1014.8
20260508071131 46 229 2.6 3.5 0.00 0.00 0.00 78 1014.9
20260508070628 46 215 0.9 1.7 0.00 0.00 0.00 79 1014.9
20260508070127 46 275 0.9 2.6 0.00 0.00 0.00 79 1014.9
20260508065624 46 289 0.0 2.6 0.00 0.00 0.00 79 1015.1
20260508065121 45 297 2.6 3.5 0.00 0.00 0.00 80 1015.1
20260508064619 45 224 2.6 2.6 0.00 0.00 0.00 80 1015.1
20260508064117 46 301 0.9 1.7 0.00 0.00 0.00 79 1015.2
20260508063614 46 241 0.9 0.9 0.00 0.00 0.00 79 1015.2
20260508063112 46 179 0.0 1.7 0.00 0.00 0.00 78 1015.2
20260508062609 46 273 1.7 2.6 0.00 0.00 0.00 77 1015.2
20260508062106 46 290 1.7 2.6 0.00 0.00 0.00 77 1015.1
20260508061603 46 232 1.7 2.6 0.00 0.00 0.00 77 1015.4
20260508061100 47 293 2.6 3.5 0.00 0.00 0.00 76 1015.4
20260508060557 47 252 0.0 1.7 0.00 0.00 0.00 76 1015.5
20260508060054 47 273 0.0 1.7 0.00 0.00 0.00 76 1015.7
20260508055550 47 273 0.9 2.6 0.00 0.00 0.00 74 1015.6
20260508055047 47 230 0.9 2.6 0.00 0.00 0.00 73 1015.6
20260508054543 47 237 1.7 3.5 0.00 0.00 0.00 73 1015.7
20260508054041 47 291 0.0 0.9 0.00 0.00 0.00 71 1015.7
20260508053537 47 287 0.0 0.0 0.00 0.00 0.00 70 1015.3
20260508053036 47 210 0.0 0.9 0.00 0.00 0.00 69 1015.3
20260508052533 47 148 0.0 0.0 0.00 0.00 0.00 69 1015.2
20260508052029 47 148 0.0 0.0 0.00 0.00 0.00 70 1015.3
20260508051526 47 148 0.0 0.0 0.00 0.00 0.00 68 1015.3
20260508051021 47 148 0.0 0.9 0.00 0.00 0.00 68 1014.9
20260508050518 47 148 0.0 0.9 0.00 0.00 0.00 69 1015.3
20260508050015 46 147 0.0 0.0 0.00 0.00 0.00 70 1015.2
20260508045511 47 147 0.0 0.0 0.00 0.00 0.00 70 1015.1
20260508045009 47 147 0.0 0.0 0.00 0.00 0.00 68 1015.3
20260508044506 46 201 0.0 0.0 0.00 0.00 0.00 70 1015.1
20260508044001 46 201 0.0 0.0 0.00 0.00 0.00 69 1015.3
20260508043459 46 201 0.0 0.0 0.00 0.00 0.00 69 1015.2
20260508042955 46 290 0.0 0.0 0.00 0.00 0.00 70 1015.1
20260508042453 46 290 0.0 0.0 0.00 0.00 0.00 71 1015.1
20260508041949 46 290 0.0 0.0 0.00 0.00 0.00 70 1015.1
20260508041446 45 290 0.0 0.0 0.00 0.00 0.00 69 1015.1
20260508040943 46 290 0.0 0.0 0.00 0.00 0.00 70 1015.4
20260508040440 46 290 0.0 0.0 0.00 0.00 0.00 70 1015.3
20260508035938 46 290 0.0 0.0 0.00 0.00 0.00 71 1015.3
20260508035434 46 290 0.0 0.0 0.00 0.00 0.00 69 1015.2
20260508034931 46 290 0.0 0.0 0.00 0.00 0.00 67 1015.3
20260508034429 46 290 0.0 0.0 0.00 0.00 0.00 66 1015.4
20260508033925 46 290 0.0 0.0 0.00 0.00 0.00 65 1015.2
20260508033424 47 290 0.0 0.0 0.00 0.00 0.00 65 1015.6
20260508032920 47 290 0.0 0.0 0.00 0.00 0.00 64 1015.4
20260508032418 0 0.0 0.0 0.00 0.00 0.00 1015.2
20260508031914 0 0.0 0.0 0.00 0.00 0.00 1015.5
20260508031412 48 288 0.0 0.0 0.00 0.00 0.00 62 1015.4
20260508030907 0 0.0 0.0 0.00 0.00 0.00 1015.5
20260508030405 0 0.0 0.0 0.00 0.00 0.00 1015.6
20260508025902 49 288 0.0 0.0 0.00 0.00 0.00 59 1015.7
20260508025353 49 288 0.0 0.0 0.00 0.00 0.00 59 1015.5
20260508024850 49 288 0.0 0.0 0.00 0.00 0.00 60 1015.7
20260508024347 49 288 0.0 0.0 0.00 0.00 0.00 59 1015.7
20260508023843 49 288 0.0 0.0 0.00 0.00 0.00 58 1015.7
20260508023340 49 288 0.0 0.0 0.00 0.00 0.00 57 1015.6
20260508022836 49 285 0.0 0.0 0.00 0.00 0.00 57 1015.5
20260508022332 50 227 0.0 0.0 0.00 0.00 0.00 57 1015.6
20260508021829 50 264 0.0 0.9 0.00 0.00 0.00 56 1015.8
20260508021325 50 237 0.0 0.9 0.00 0.00 0.00 57 1015.6
20260508020821 50 328 0.0 0.9 0.00 0.00 0.00 58 1015.5
20260508020319 50 349 0.0 0.9 0.00 0.00 0.00 56 1015.4
20260508015816 50 322 0.9 2.6 0.00 0.00 0.00 53 1015.2
20260508015309 50 302 0.9 0.9 0.00 0.00 0.00 55 1015.7
20260508014805 50 306 0.9 2.6 0.00 0.00 0.00 54 1015.5
20260508014302 50 169 0.9 1.7 0.00 0.00 0.00 56 1015.5
20260508013757 50 308 0.9 0.9 0.00 0.00 0.00 56 1015.4
20260508013254 50 284 0.0 0.0 0.00 0.00 0.00 55 1015.3
20260508012752 50 258 0.0 0.9 0.00 0.00 0.00 56 1015.1
20260508012249 49 243 0.0 0.0 0.00 0.00 0.00 56 1015.2
20260508011747 49 301 0.0 0.0 0.00 0.00 0.00 57 1014.9
20260508011244 48 301 0.0 0.0 0.00 0.00 0.00 58 1014.9
20260508010741 48 297 0.0 0.0 0.00 0.00 0.00 59 1015.1
20260508010239 48 297 0.0 0.0 0.00 0.00 0.00 58 1014.9
20260508005736 48 297 0.0 0.0 0.00 0.00 0.00 57 1014.7
20260508005232 48 297 0.0 0.0 0.00 0.00 0.00 56 1014.7
20260508004728 48 297 0.0 0.0 0.00 0.00 0.00 57 1014.7
20260508004224 48 297 0.0 0.0 0.00 0.00 0.00 55 1014.6
20260508003721 48 297 0.0 0.0 0.00 0.00 0.00 55 1014.6
20260508003219 49 297 0.0 0.0 0.00 0.00 0.00 55 1014.6
20260508002715 49 297 0.0 0.0 0.00 0.00 0.00 55 1014.4
20260508002212 49 297 0.0 0.0 0.00 0.00 0.00 53 1014.5
20260508001708 50 297 0.0 0.0 0.00 0.00 0.00 51 1014.5
20260508001204 51 297 0.0 0.0 0.00 0.00 0.00 50 1014.5
20260508000700 51 279 0.0 0.0 0.00 0.00 0.00 50 1014.5
20260508000157 51 292 0.0 0.0 0.00 0.00 0.00 49 1014.5
20260507235654 51 74 0.9 2.6 0.00 0.00 0.00 48 1014.3
20260507235151 52 338 0.0 0.9 0.00 0.00 0.00 48 1014.2
20260507234648 52 311 0.9 1.7 0.00 0.00 0.00 46 1014.2
20260507234144 52 244 0.0 0.0 0.00 0.00 0.00 47 1014.4
20260507233641 52 340 0.0 1.7 0.00 0.00 0.00 47 1014.3
20260507233140 53 259 0.9 1.7 0.00 0.00 0.00 47 1014.3
20260507232636 53 336 0.9 2.6 0.00 0.00 0.00 45 1014.4
20260507232133 53 240 0.9 2.6 0.00 0.00 0.00 44 1014.2
20260507231629 54 152 0.9 2.6 0.00 0.00 0.00 44 1014.4
20260507231127 55 284 0.9 2.6 0.00 0.00 0.00 43 1014.6
20260507230623 55 8 0.9 2.6 0.00 0.00 0.00 42 1014.4
20260507230120 55 281 1.7 5.2 0.00 0.00 0.00 43 1014.3
20260507225615 55 341 0.9 0.9 0.00 0.00 0.00 44 1014.4
20260507225112 55 274 0.9 1.7 0.00 0.00 0.00 44 1014.6
20260507224607 55 276 0.9 2.6 0.00 0.00 0.00 44 1014.4
20260507224104 55 309 2.6 5.2 0.00 0.00 0.00 42 1014.6
20260507223601 54 295 0.9 1.7 0.00 0.00 0.00 43 1014.6
20260507223057 55 226 1.7 5.2 0.00 0.00 0.00 42 1014.4
20260507222555 55 327 0.9 0.9 0.00 0.00 0.00 41 1014.7
20260507222051 54 301 0.9 2.6 0.00 0.00 0.00 42 1014.8
20260507221547 55 277 1.7 6.1 0.00 0.00 0.00 41 1014.4
20260507221044 55 9 1.7 5.2 0.00 0.00 0.00 43 1014.5
20260507220541 54 304 1.7 2.6 0.00 0.00 0.00 44 1014.6
20260507220039 54 298 0.0 2.6 0.00 0.00 0.00 45 1014.3
20260507215534 56 280 1.7 1.7 0.00 0.00 0.00 41 1014.5
20260507215033 56 356 0.9 5.2 0.00 0.00 0.00 41 1014.4
20260507214530 56 144 0.0 0.9 0.00 0.00 0.00 41 1014.2
20260507214026 57 206 0.0 2.6 0.00 0.00 0.00 41 1014.5
20260507213522 56 317 1.7 5.2 0.00 0.00 0.00 39 1014.1
20260507213019 56 346 3.5 6.1 0.00 0.00 0.00 40 1014.2
20260507212515 55 321 0.9 1.7 0.00 0.00 0.00 42 1014.2
20260507212012 55 310 4.3 8.7 0.00 0.00 0.00 41 1014.3
20260507211509 55 297 1.7 5.2 0.00 0.00 0.00 41 1014.2
20260507211005 55 330 2.6 3.5 0.00 0.00 0.00 40 1014.5
20260507210502 56 327 1.7 3.5 0.00 0.00 0.00 41 1014.2
20260507205959 56 287 1.7 5.2 0.00 0.00 0.00 42 1014.0
20260507205455 57 220 1.7 1.7 0.00 0.00 0.00 42 1014.1
20260507204951 55 251 1.7 5.2 0.00 0.00 0.00 45 1014.1
20260507204442 54 310 2.6 7.0 0.00 0.00 0.00 43 1014.1
20260507203940 56 205 0.9 3.5 0.00 0.00 0.00 43 1014.1
20260507203438 58 150 1.7 3.5 0.00 0.00 0.00 42 1014.1
20260507202934 57 281 0.9 0.9 0.00 0.00 0.00 45 1014.1
20260507202431 57 215 1.7 5.2 0.00 0.00 0.00 47 1014.1
20260507201926 57 256 4.3 7.0 0.00 0.00 0.00 43 1014.2
20260507201416 56 206 0.9 2.6 0.00 0.00 0.00 46 1014.1
20260507200913 56 321 0.0 2.6 0.00 0.00 0.00 46 1014.0
20260507200409 55 326 1.7 2.6 0.00 0.00 0.00 47 1014.2
20260507195905 56 14 2.6 5.2 0.00 0.00 0.00 44 1014.3
20260507195403 55 358 1.7 2.6 0.00 0.00 0.00 46 1014.4
20260507194859 55 3 1.7 2.6 0.00 0.00 0.00 50 1014.4
20260507194356 57 238 0.9 6.1 0.00 0.00 0.00 47 1014.4
20260507193852 56 263 0.9 3.5 0.00 0.00 0.00 47 1014.3
20260507193349 54 339 2.6 3.5 0.00 0.00 0.00 49 1014.6
20260507192845 55 260 1.7 2.6 0.00 0.00 0.00 46 1014.3
20260507192342 54 310 5.2 6.1 0.00 0.00 0.00 47 1014.4
20260507191838 53 219 1.7 3.5 0.00 0.00 0.00 51 1014.6
20260507191334 54 322 1.7 6.1 0.00 0.00 0.00 49 1014.7
20260507190831 54 172 0.9 6.1 0.00 0.00 0.00 51 1014.5
20260507190330 54 274 0.9 5.2 0.00 0.00 0.00 51 1014.5
20260507185829 56 234 3.5 6.1 0.00 0.00 0.00 49 1014.5
20260507185325 54 347 2.6 3.5 0.00 0.00 0.00 53 1014.5
20260507184822 56 20 2.6 3.5 0.00 0.00 0.00 51 1014.5
20260507184320 54 222 0.9 2.6 0.00 0.00 0.00 52 1014.6
20260507183816 54 286 1.7 6.1 0.00 0.00 0.00 50 1014.7
20260507183314 57 278 0.9 3.5 0.00 0.00 0.00 46 1014.7
20260507182811 58 348 0.9 3.5 0.00 0.00 0.00 46 1014.6
20260507182307 57 319 1.7 3.5 0.00 0.00 0.00 46 1014.5
20260507181803 56 190 0.9 6.1 0.00 0.00 0.00 52 1014.5
20260507181259 56 289 1.7 3.5 0.00 0.00 0.00 49 1014.6
20260507180756 56 148 1.7 3.5 0.00 0.00 0.00 49 1014.5
20260507180253 56 326 0.9 2.6 0.00 0.00 0.00 51 1014.7
20260507175748 56 341 0.0 3.5 0.00 0.00 0.00 50 1014.5
20260507175245 55 251 0.9 3.5 0.00 0.00 0.00 51 1014.6
20260507174743 56 247 3.5 6.1 0.00 0.00 0.00 49 1014.7
20260507174241 55 340 4.3 6.1 0.00 0.00 0.00 47 1014.9
20260507173738 56 314 4.3 7.8 0.00 0.00 0.00 46 1014.7
20260507173229 55 215 1.7 5.2 0.00 0.00 0.00 47 1014.7
20260507172725 55 267 1.7 5.2 0.00 0.00 0.00 47 1014.8
20260507172222 56 303 2.6 2.6 0.00 0.00 0.00 47 1014.9
20260507171723 56 350 4.3 6.1 0.00 0.00 0.00 46 1014.9
20260507171220 56 350 4.3 6.1 0.00 0.00 0.00 46 1014.7
20260507170717 56 86 0.9 2.6 0.00 0.00 0.00 48 1015.1
20260507170214 56 158 1.7 5.2 0.00 0.00 0.00 52 1014.9
20260507165709 56 311 0.9 1.7 0.00 0.00 0.00 51 1015.1
20260507165206 55 285 1.7 2.6 0.00 0.00 0.00 49 1014.8
20260507164702 55 200 0.9 2.6 0.00 0.00 0.00 48 1015.2
20260507164159 54 297 1.7 7.0 0.00 0.00 0.00 50 1014.9
20260507163655 54 221 0.9 2.6 0.00 0.00 0.00 51 1015.1
20260507163148 55 294 1.7 3.5 0.00 0.00 0.00 51 1014.9
20260507162644 55 340 0.9 3.5 0.00 0.00 0.00 46 1015.2
20260507162140 53 277 0.0 2.6 0.00 0.00 0.00 50 1015.1
20260507161636 54 223 3.5 5.2 0.00 0.00 0.00 51 1014.9
20260507161133 54 8 3.5 3.5 0.00 0.00 0.00 48 1014.9
20260507160630 54 322 0.0 2.6 0.00 0.00 0.00 49 1014.8
20260507160127 54 29 0.9 2.6 0.00 0.00 0.00 51 1015.1
20260507155622 54 231 0.9 1.7 0.00 0.00 0.00 51 1014.9
20260507155119 52 292 1.7 1.7 0.00 0.00 0.00 52 1015.2
20260507154615 54 236 0.9 1.7 0.00 0.00 0.00 52 1015.3
20260507154113 53 251 1.7 3.5 0.00 0.00 0.00 51 1015.1
20260507153609 53 254 1.7 2.6 0.00 0.00 0.00 54 1014.9
20260507153105 54 331 1.7 2.6 0.00 0.00 0.00 51 1015.1
20260507152601 53 236 0.9 1.7 0.00 0.00 0.00 55 1014.9
20260507152057 53 252 1.7 5.2 0.00 0.00 0.00 48 1014.9
20260507151554 54 299 0.9 5.2 0.00 0.00 0.00 47 1014.9
20260507151051 55 268 1.7 2.6 0.00 0.00 0.00 49 1014.9
20260507150548 54 46 1.7 2.6 0.00 0.00 0.00 56 1014.9
20260507150045 55 329 0.9 1.7 0.00 0.00 0.00 49 1014.9
20260507145540 54 26 0.9 2.6 0.00 0.00 0.00 55 1014.9
20260507145038 53 271 0.0 2.6 0.00 0.00 0.00 55 1015.3
20260507144534 53 203 0.9 0.9 0.00 0.00 0.00 54 1015.2
20260507144032 52 250 0.9 5.2 0.00 0.00 0.00 56 1014.9
20260507143529 52 242 2.6 3.5 0.00 0.00 0.00 58 1015.3
20260507143027 51 358 1.7 3.5 0.00 0.00 0.00 57 1014.9
20260507142527 50 284 0.0 1.7 0.00 0.00 0.00 63 1015.3
20260507142024 51 112 0.9 2.6 0.00 0.00 0.00 58 1015.1
20260507141520 51 237 0.0 0.9 0.00 0.00 0.00 62 1014.9
20260507141017 51 284 0.9 1.7 0.00 0.00 0.00 63 1015.2
20260507140514 51 247 1.7 3.5 0.00 0.00 0.00 61 1015.2
20260507140012 51 308 0.9 1.7 0.00 0.00 0.00 61 1015.1